www.pogodaiklimat.ru

Погода и климат >> Архив погоды >> Финляндия >> Аэропорт Халли


ПОГОДА в Аэропорту Халли

  • Прогноз погоды в Аэропорту Халли
  • Монитор погоды в Аэропорту Халли

АРХИВ ПОГОДЫ в Аэропорту Халли

Время (UTC), дата Ветер
(напр.,м/с)
 
Видим.   Явления Облачность Т
(С)
Тd
(С)
f
(%)
Тe
(С)
Тes
(С)
Комфортность P
(гПа)
Po
(гПа)
Тmin
(С)
Tmax
(С)
R
(мм)
R24
(мм)
S
(см)
01 12.08 Ю 3 18 км в посл. час дождь н/о +15.9 +15.5 97 +15 +15 1008.0 990.9
02 12.08 Ю 3 16 км н/о +15.7 +15.2 97 +15 +15 1008.0 990.9
03 12.08 Ю 3 17 км н/о +15.7 +15.2 97 +15 +15 1008.2 991.1
04 12.08 Ю 3 20 км н/о +15.8 +15.2 96 +15 +15 1008.4 991.3
05 12.08 Ю 3 21 км в посл. час дождь н/о +15.8 +15.3 97 +15 +15 1008.2 991.1
06 12.08 Ю 4 28 км н/о +16.3 +15.4 94 +16 +16 1008.3 991.2 +15.5 +16.3
07 12.08 Ю 4 7000 м дождь н/о +16.5 +15.7 95 +16 +16 1008.4 991.3
08 12.08 Ю 5 15 км дождь н/о +15.6 +14.9 96 +14 +14 1008.8 991.7
09 12.08 ЮЗ 6 45 км в посл. час дождь н/о +17.8 +15.0 84 +17 +17 1008.7 991.7
10 12.08 ЮЗ 4 45 км н/о +18.6 +15.0 80 +19 +19 1008.6 991.6
11 12.08 Ю 5 50 км н/о +19.0 +14.3 74 +20 +20 1008.2 991.3
12 12.08 Ю 5 45 км н/о +19.2 +13.5 70 +20 +20 1008.2 991.3
13 12.08 Ю 4 50 км н/о +19.9 +13.4 66 +22 +22 комфорт 1007.6 990.7
14 12.08 ЮЗ 4 55 км н/о +20.0 +11.7 59 +22 +22 комфорт 1007.3 990.5
15 12.08 ЮЗ 2 50 км в посл. час дождь н/о +17.8 +13.9 78 +18 +18 1007.6 990.6
16 12.08 Ю 1 55 км н/о +18.0 +13.8 76 +19 +19 1007.1 990.1
17 12.08 ЮВ 2 45 км н/о +17.9 +13.8 77 +18 +18 1006.9 990.0
18 12.08 Ю 3 50 км н/о +17.2 +12.4 73 +17 +17 1007.2 990.2 +15.1 +20.5
19 12.08 Ю 3 45 км н/о +16.3 +12.1 76 +16 +16 1007.2 990.1
20 12.08 Ю 3 45 км н/о +15.8 +11.8 77 +15 +15 1007.2 990.1
21 12.08 Ю 2 45 км н/о +15.1 +12.0 82 +15 +15 1007.3 990.1
22 12.08 Ю 2 45 км н/о +15.3 +12.6 84 +15 +15 1007.4 990.3
23 12.08 Ю 3 40 км н/о +15.2 +13.1 87 +14 +14 1007.4 990.3
00 13.08 Ю 3 40 км н/о +15.0 +13.2 89 +14 +14 1007.2 990.1
01 13.08 Ю 3 35 км н/о +14.9 +13.5 91 +14 +14 1007.1 989.9
02 13.08 ЮВ 2 30 км н/о +14.8 +13.8 94 +14 +14 1006.8 989.7
03 13.08 Ю 2 29 км н/о +14.6 +13.7 94 +14 +14 1006.5 989.3
04 13.08 Ю 3 35 км н/о +15.0 +13.7 92 +14 +14 1006.3 989.2
05 13.08 Ю 3 40 км н/о +15.5 +13.8 90 +15 +15 1006.3 989.2
06 13.08 Ю 3 40 км н/о +16.1 +13.9 87 +16 +16 1006.3 989.2 +14.6 +17.4
07 13.08 Ю 4 55 км н/о +17.2 +14.0 81 +17 +17 1006.2 989.2
08 13.08 Ю 5 40 км дождь н/о +16.0 +12.8 81 +15 +15 1006.5 989.4
09 13.08 ЮВ 3 50 км в посл. час дождь н/о +18.2 +15.0 82 +19 +19 1005.8 988.8
10 13.08 Ю 3 65 км н/о +18.5 +14.7 79 +19 +19 1005.1 988.2
11 13.08 Ю 3 60 км в посл. час дождь н/о +20.1 +14.5 70 +23 +23 комфорт 1004.6 987.8
12 13.08 Ю 6 65 км н/о +20.0 +12.5 62 +21 +21 комфорт 1004.4 987.6
13 13.08 ЮЗ 6 65 км н/о +21.5 +12.1 55 +24 +24 комфорт 1003.8 987.0
14 13.08 Ю 4 >70 км н/о +21.5 +11.7 54 +24 +24 комфорт 1003.7 987.0
15 13.08 ЮЗ 4 >70 км н/о +22.0 +11.4 51 +24 +24 комфорт 1003.4 986.7
16 13.08 ЮЗ 3 >70 км н/о +20.8 +9.9 50 +23 +23 комфорт 1003.4 986.7
17 13.08 ЮЗ 3 >70 км н/о +20.7 +10.3 51 +23 +23 комфорт 1003.6 986.8
18 13.08 ЮЗ 2 50 км н/о +18.9 +10.2 57 +20 +20 1003.9 987.0 +15.1 +22.0
19 13.08 ЮЗ 3 >70 км н/о +17.4 +10.5 64 +17 +17 1004.2 987.2
20 13.08 З 3 >70 км н/о +16.2 +10.5 69 +16 +16 1004.5 987.5
21 13.08 З 4 >70 км н/о +14.9 +11.3 79 +14 +14 1005.0 987.8
22 13.08 З 2 65 км н/о +14.1 +10.9 81 +14 +14 1005.1 987.9
23 13.08 Ю 2 55 км н/о +12.8 +10.9 88 +12 +12 1005.3 988.1
00 14.08 Ю 2 50 км н/о +12.5 +11.4 93 +11 +11 1005.3 988.0
01 14.08 Ю 3 50 км н/о +12.7 +11.5 92 +11 +11 1005.2 988.0
02 14.08 ЮВ 3 45 км н/о +12.3 +11.7 96 +11 +11 1004.9 987.6
03 14.08 ЮВ 3 40 км н/о +13.1 +12.4 96 +12 +12 1005.0 987.7
04 14.08 Ю 2 40 км н/о +13.6 +12.6 94 +13 +13 1004.8 987.6
05 14.08 Ю 3 40 км н/о +14.1 +13.0 93 +13 +13 1004.6 987.5
06 14.08 Ю 3 45 км н/о +15.0 +13.0 88 +14 +14 1004.5 987.4 +12.0 +18.9
07 14.08 Ю 3 40 км слаб. дождь н/о +14.8 +13.1 90 +14 +14 1004.3 987.2
08 14.08 ЮЗ 2 35 км слаб. ливневой дождь н/о +14.7 +12.7 88 +14 +14 1004.3 987.2
09 14.08 ЮЗ 3 >70 км н/о +14.8 +12.4 86 +14 +14 1004.3 987.2
10 14.08 ЮЗ 4 45 км н/о +14.2 +12.2 88 +13 +13 1004.9 987.8
11 14.08 ЮЗ 2 35 км слаб. дождь н/о +13.6 +12.4 92 +13 +13 1005.0 987.8
12 14.08 Ю 3 60 км в посл. час дождь н/о +14.9 +13.4 91 +14 +14 1004.9 987.8
13 14.08 Ю 3 35 км дождь н/о +13.8 +12.1 89 +13 +13 1005.2 988.0
14 14.08 ЮЗ 1 65 км слаб. ливневой дождь н/о +14.1 +12.0 87 +14 +14 1005.1 987.9
15 14.08 Ю 3 60 км н/о +14.4 +13.0 91 +13 +13 1005.0 987.9
16 14.08 Ю 4 60 км н/о +14.6 +12.3 86 +13 +13 1005.0 987.9
17 14.08 Ю 3 >70 км н/о +13.7 +10.6 82 +13 +13 1005.1 987.9
18 14.08 Ю 3 50 км н/о +12.9 +10.3 84 +12 +12 1005.3 988.1 +12.7 +15.5
19 14.08 Ю 3 >70 км н/о +11.9 +10.1 89 +10 +10 1005.5 988.2
20 14.08 З 2 65 км н/о +11.6 +10.4 92 +10 +10 1005.8 988.4
21 14.08 ЮЗ 1 35 км слаб. дождь н/о +10.9 +10.4 97 +10 +10 1005.5 988.1
22 14.08 З 2 11 км ливневой дождь н/о +11.6 +10.9 95 +10 +10 1005.1 987.8
23 14.08 ЮЗ 1 30 км слаб. ливневой дождь н/о +11.5 +11.1 97 +11 +11 1005.3 988.0
00 15.08 Ю 2 35 км н/о +11.1 +10.8 98 +10 +10 1005.4 988.0
01 15.08 Ю 2 30 км н/о +10.9 +10.7 99 +9 +9 1005.4 988.0
02 15.08 ЮЗ 1 30 км н/о +10.6 +10.3 98 +10 +10 1005.3 987.9
03 15.08 Ю 2 35 км н/о +10.6 +10.2 97 +9 +9 1005.2 987.8
04 15.08 Ю 2 50 км н/о +10.9 +10.5 97 +9 +9 1005.1 987.8
05 15.08 ЮЗ 3 50 км н/о +11.7 +11.2 97 +10 +10 1005.0 987.7
06 15.08 ЮЗ 3 50 км н/о +12.1 +11.2 94 +10 +10 1005.1 987.8 +10.3 +12.9
07 15.08 ЮЗ 5 >70 км в посл. час дождь н/о +12.9 +11.0 88 +11 +11 1004.9 987.7
08 15.08 ЮЗ 5 >70 км н/о +13.3 +11.1 87 +11 +11 1004.9 987.7
09 15.08 ЮЗ 4 65 км н/о +13.4 +10.5 83 +12 +12 1004.9 987.7
10 15.08 З 7 >70 км н/о +14.8 +9.6 71 +13 +13 1005.0 987.8
11 15.08 З 7 >70 км н/о +14.2 +9.9 75 +12 +12 1005.4 988.2
12 15.08 З 6 >70 км н/о +15.2 +9.6 69 +14 +14 1005.6 988.5
13 15.08 З 5 >70 км в посл. час дождь н/о +15.6 +9.7 68 +14 +14 1006.0 988.9
14 15.08 З 8 >70 км н/о +15.3 +8.0 62 +13 +13 1006.5 989.4
15 15.08 З 6 >70 км н/о +15.2 +8.4 64 +14 +14 1007.1 989.9
16 15.08 З 7 >70 км н/о +14.7 +8.2 65 +13 +13 1007.6 990.4
17 15.08 З 6 >70 км н/о +14.3 +8.1 66 +12 +12 1008.1 990.9
18 15.08 З 3 50 км н/о +13.8 +8.3 69 +13 +13 1008.7 991.4 +12.0 +15.7
19 15.08 ЮЗ 4 >70 км н/о +12.8 +8.2 74 +11 +11 1009.2 991.9
20 15.08 ЮЗ 4 >70 км н/о +11.9 +8.0 77 +10 +10 1009.7 992.3
21 15.08 ЮЗ 4 >70 км н/о +11.4 +7.9 79 +9 +9 1010.1 992.7
22 15.08 ЮЗ 4 >70 км н/о +10.7 +7.6 81 +8 +8 1010.5 993.0
23 15.08 ЮЗ 5 >70 км н/о +10.5 +7.4 81 +8 +8 1011.0 993.5
00 16.08 ЮЗ 4 >70 км н/о +10.4 +7.0 79 +8 +8 1011.3 993.8
01 16.08 ЮЗ 4 >70 км н/о +10.4 +7.7 83 +8 +8 1011.3 993.8
02 16.08 ЮЗ 4 >70 км н/о +9.7 +7.7 87 +7 +7 1011.5 994.0
03 16.08 Ю 2 >70 км н/о +9.0 +7.7 92 +7 +7 1011.8 994.2
04 16.08 Ю 2 >70 км н/о +10.6 +9.3 92 +9 +9 1011.9 994.4
05 16.08 Ю 3 65 км н/о +12.3 +10.2 87 +11 +11 1012.2 994.8
06 16.08 ЮЗ 3 50 км н/о +14.0 +11.3 84 +13 +13 1012.3 995.0 +9.0 +14.0
07 16.08 ЮЗ 3 >70 км н/о +15.9 +11.1 73 +15 +15 1012.4 995.3
08 16.08 ЮЗ 3 65 км н/о +17.1 +10.9 67 +17 +17 1012.5 995.4
09 16.08 ЮЗ 5 >70 км н/о +17.9 +9.2 57 +18 +18 1012.7 995.6
10 16.08 ЮЗ 5 >70 км н/о +18.6 +8.3 51 +19 +19 1012.8 995.8
11 16.08 З 3 65 км н/о +19.2 +8.3 49 +20 +20 1012.7 995.7
12 16.08 ЮЗ 4 65 км н/о +20.5 +7.7 44 +22 +22 комфорт 1012.4 995.5
13 16.08 З 4 60 км слаб. дождь н/о +21.0 +11.4 54 +23 +23 комфорт 1012.6 995.7
14 16.08 ЮЗ 5 >70 км н/о +19.1 +10.8 59 +20 +20 1012.9 995.9
15 16.08 ЮЗ 6 65 км н/о +17.4 +11.4 68 +17 +17 1013.3 996.2
16 16.08 Ю 3 65 км в посл. час дождь н/о +17.4 +11.9 70 +17 +17 1013.3 996.2
17 16.08 Ю 3 >70 км н/о +15.7 +11.9 78 +15 +15 1013.7 996.5
18 16.08 ЮВ 3 50 км н/о +14.9 +13.3 90 +14 +14 1013.9 996.7 +14.0 +21.0
19 16.08 ЮВ 2 45 км н/о +13.9 +13.0 94 +13 +13 1014.1 996.8
20 16.08 ЮВ 2 35 км н/о +14.1 +13.4 96 +13 +13 1014.3 996.9
21 16.08 Ю 2 50 км н/о +14.5 +13.1 91 +14 +14 1014.4 997.1
22 16.08 ЮВ 3 60 км н/о +14.6 +12.3 86 +14 +14 1014.2 996.9
23 16.08 ЮВ 3 60 км н/о +14.4 +11.8 84 +13 +13 1014.2 996.9
00 17.08 ЮВ 4 65 км н/о +14.4 +11.5 83 +13 +13 1014.1 996.8
01 17.08 ЮВ 4 60 км н/о +14.3 +11.8 85 +13 +13 1014.0 996.7
02 17.08 ЮВ 4 60 км н/о +14.3 +11.9 85 +13 +13 1013.7 996.4
03 17.08 Ю 4 65 км н/о +14.6 +11.6 82 +13 +13 1013.4 996.1
04 17.08 Ю 4 >70 км н/о +14.8 +11.9 83 +14 +14 1013.4 996.1
05 17.08 ЮВ 4 >70 км н/о +15.2 +12.3 83 +14 +14 1013.2 996.0
06 17.08 ЮВ 5 50 км н/о +15.8 +12.5 81 +15 +15 1013.2 996.0 +13.8 +15.8
07 17.08 Ю 4 65 км н/о +17.0 +13.1 78 +17 +17 1013.1 996.0
08 17.08 Ю 5 60 км н/о +18.9 +12.4 66 +19 +19 1012.8 995.9
09 17.08 Ю 6 >70 км н/о +20.5 +12.9 62 +23 +23 комфорт 1012.7 995.8
10 17.08 Ю 5 >70 км н/о +20.9 +12.7 59 +23 +23 комфорт 1012.9 996.0
11 17.08 Ю 7 >70 км н/о +21.6 +11.7 53 +24 +24 комфорт 1012.5 995.7
12 17.08 Ю 6 >70 км н/о +22.0 +11.3 51 +24 +24 комфорт 1012.2 995.4
13 17.08 Ю 7 >70 км н/о +22.1 +10.4 47 +24 +24 комфорт 1011.8 995.0
14 17.08 ЮЗ 7 >70 км н/о +22.5 +10.3 46 +24 +24 комфорт 1011.7 994.9
15 17.08 Ю 6 >70 км н/о +22.2 +10.8 48 +24 +24 комфорт 1011.7 994.9
16 17.08 Ю 5 >70 км н/о +20.8 +10.3 51 +23 +23 комфорт 1011.9 995.0
17 17.08 Ю 6 >70 км н/о +20.2 +10.1 52 +21 +21 комфорт 1012.2 995.2
18 17.08 Ю 4 50 км н/о +18.8 +10.4 58 +19 +19 1012.4 995.4 +15.8 +23.2
19 17.08 Ю 2 >70 км н/о +17.4 +11.5 68 +18 +18 1012.7 995.6
20 17.08 Ю 3 >70 км н/о +16.8 +11.5 71 +17 +17 1012.8 995.7
21 17.08 Ю 3 >70 км н/о +16.6 +12.0 74 +16 +16 1012.8 995.7
22 17.08 Ю 2 55 км н/о +17.1 +13.6 80 +17 +17 1013.0 995.8
23 17.08 Ю 3 50 км слаб. ливневой дождь н/о +16.5 +14.2 86 +16 +16 1013.1 996.0
00 18.08 ЮВ 4 50 км в посл. час дождь н/о +16.2 +13.9 86 +15 +15 1012.8 995.7
01 18.08 ЮВ 2 40 км слаб. ливневой дождь н/о +15.8 +13.9 88 +16 +16 1012.6 995.5
02 18.08 ЮВ 3 19 км слаб. ливневой дождь н/о +15.3 +14.1 93 +15 +15 1012.4 995.2
03 18.08 ЮВ 3 50 км слаб. ливневой дождь н/о +15.7 +13.2 85 +15 +15 1012.0 994.8
04 18.08 ЮВ 4 >70 км в посл. час дождь н/о +16.1 +12.3 78 +15 +15 1011.7 994.6
05 18.08 Ю 4 65 км н/о +16.4 +12.4 77 +16 +16 1011.9 994.7
06 18.08 ЮВ 4 50 км н/о +17.0 +12.2 73 +17 +17 1011.7 994.6 +15.2 +18.8
07 18.08 Ю 5 65 км н/о +18.2 +12.5 69 +18 +18 1011.6 994.5
08 18.08 ЮВ 4 65 км н/о +18.8 +13.3 70 +20 +20 1011.4 994.5
09 18.08 ЮВ 6 >70 км н/о +20.1 +12.4 61 +22 +22 комфорт 1011.2 994.3
10 18.08 ЮВ 5 >70 км н/о +20.2 +11.8 58 +22 +22 комфорт 1011.0 994.0
11 18.08 ЮВ 5 65 км н/о +20.3 +11.5 57 +22 +22 комфорт 1011.1 994.2
12 18.08 ЮВ 5 >70 км н/о +21.1 +10.8 52 +23 +23 комфорт 1010.8 993.9
13 18.08 ЮВ 6 >70 км н/о +21.5 +9.8 47 +23 +23 комфорт 1010.6 993.7
14 18.08 ЮВ 6 >70 км н/о +20.5 +9.4 49 +22 +22 комфорт 1010.5 993.6
15 18.08 ЮВ 3 >70 км н/о +20.0 +9.7 51 +22 +22 комфорт 1010.6 993.7
16 18.08 ЮВ 3 65 км слаб. ливневой дождь н/о +18.9 +10.7 59 +20 +20 1010.4 993.4
17 18.08 ЮВ 4 >70 км в посл. час дождь н/о +19.0 +8.5 51 +20 +20 1010.2 993.3
18 18.08 ЮВ 5 50 км н/о +18.7 +7.5 48 +19 +19 1009.9 992.9 +17.0 +21.5
19 18.08 ЮВ 5 >70 км н/о +18.4 +7.8 50 +18 +18 1009.6 992.6
20 18.08 ЮВ 5 >70 км н/о +17.9 +8.4 54 +18 +18 1009.3 992.3
21 18.08 ЮВ 4 >70 км н/о +17.4 +9.1 58 +17 +17 1009.1 992.1
22 18.08 ЮВ 4 >70 км н/о +17.0 +9.2 60 +17 +17 1008.6 991.5
23 18.08 ЮВ 4 >70 км н/о +17.1 +9.5 61 +17 +17 1008.1 991.1
00 19.08 ЮВ 4 >70 км слаб. ливневой дождь н/о +16.5 +10.5 68 +16 +16 1007.7 990.6
01 19.08 Ю 4 65 км н/о +17.1 +10.5 65 +17 +17 1007.2 990.2

 

Местоположение метеостанции Аэропорт Халли (Финляндия): широта 61.86 долгота 24.80 высота над уровнем моря 143 м.

В архиве по умолчанию представлена погода в Аэропорту Халли за последнюю неделю. Архивные данные за месяц целиком и за предыдущие месяцы, начиная с января 2011 года, Вы можете получить, выбрав интересующий диапазон дат из раскрывающегося списка и нажав кнопку "Ввод!".


*Определитесь, кто Вы:
робот инопланетянин человек

Внимание! Время в таблицах - всемирное. Для получения местного времени необходимо прибавить поправку, которая равна 1 ч.

Смотрите также архив погоды в соседних городах и на ближайших метеорологических станциях:

Погода в Халли (Финляндия) (20 км)
Погода в Юупайоки Хююеяля (Финляндия) (27 км)
Погода в Юдинсало (Финляндия) (41 км)
Погода на Острове Сиилинкари (Финляндия) (67 км)
Погода в Тампере (Финляндия) (68 км)
Погода в Лейвонмаки Савенахо (Финляндия) (68 км)
Погода в Тампере (Финляндия) (70 км)
Погода в Мультия Кархила (Финляндия) (72 км)
Погода в Ламми Эво (Финляндия) (73 км)
Погода в Ювяскюля (Финляндия) (75 км)

Пояснения к столбцам:

Ветер - указаны скорость ветра в м/с - средняя за 10 мин, порывы в срок и между сроками (в фигурных скобках) и направление, откуда дует ветер: С - северный, СВ - северо-восточный, В - восточный, ЮВ - юго-восточный, Ю - южный, ЮЗ - юго-западный, З - западный, СЗ - северо-западный.
Видимость - горизонтальная дальность видимости в метрах или километрах. При видимости от 1 до 10 км при отсутствии осадков обычно наблюдается дымка, при ухудшении видимости до 1 км и менее - туман. В сухую погоду видимость может ухудшаться дымом, пылью или мглою.
Явления - указаны атмосферные явления, наблюдавшиеся в срок или в последний час перед сроком; фигурными скобками обозначены явления, наблюдавшиеся между сроками (за 1-3 часа до срока); квадратными скобками обозначены град или гололедные отложения с указанием их диаметра в мм.
Облачность - указаны через наклонную черту общая и нижняя облачность в баллах и высота нижней границы облаков в метрах; квадратными скобками обозначены формы облаков: Ci - перистые, Cs - перисто-слоистые, Cc - перисто-кучевые, Ac - высококучевые, As - высокослоистые, Sc - слоисто-кучевые, Ns - слоисто-дождевые, Cu - кучевые, Cb - кучево-дождевые. Подробнее классификацию облаков см. в Атласе облаков (PDF).
T - Температура воздуха - температура, измеренная на высоте 2 м над землей.
Td - Температура точки росы - температура, при понижении до которой содержащийся в воздухе водяной пар достигнет насыщения.
f - Относительная влажность воздуха - влажноcть воздуха, измеренная на высоте 2 м над землей.
Te - Эффективная температура - температура, которую ощущает одетый по сезону человек в тени. Характеристика душности погоды. При расчете учитывается влияние влажности воздуха и скорости ветра на теплоощущения человека.
Tes - Эффективная температура на солнце - температура, которую ощущает человек, с поправкой на солнечный нагрев. Характеристика знойности погоды. Зависит от высоты солнца над горизонтом, облачности и скорости ветра. Ночью, в пасмурную погоду, а также при ветре 12 м/с и более поправка равна нулю.
P - Атмосферное давление - приведенное к уровню моря атмосферное давление.
Po - Атмосферное давление - измеренное на уровне метеостанции атмосферное давление.
Tmin - Минимальная температура - минимум температуры воздуха на высоте 2 м над землей.
Tmax - Максимальная температура - максимум температуры воздуха на высоте 2 м над землей.
R - Количество осадков - Количество выпавших осадков за период времени, мм. При наведении курсора мыши на число - период времени, за который выпало указанное количество осадков.
R24 - Количество осадков - Количество выпавших осадков за 24 часа, мм.
S - Снежный покров - Высота снежного покрова, см. При наведении курсора мыши на число - состояние снежного покрова и степень покрытия местности в баллах.